Temp
63 63 63 64 63 63 64 64 64 63 63 63 64 64 63 63 63 60 62 69 68 70 68 65 65 64 63 60 60 54 46 42 45 48 51 55 57 60 58 55 59 60 58 61 59
63 63 63 63 63 63 63 63 63 63 63 63 63 63 63 63 58 60 71 72 71 69 65 62 59 61 57 56 56 51 43 48 51 51 51 56 53 55 57 55 53 58 62 60 57
62 62 62 62 62 63 63 63 63 63 63 62 63 63 63 60 61 64 70 72 71 69 67 65 64 61 53 53 52 49 48 51 56 57 55 53 53 54 51 53 56 58 60 61 58
61 61 62 62 62 62 63 63 63 63 62 62 62 63 62 58 53 64 69 71 70 66 66 63 60 54 50 50 54 47 55 55 57 57 54 53 54 53 54 60 59 58 58 56 54
61 60 61 61 61 62 62 63 63 62 62 62 63 62 59 56 61 65 68 68 65 65 62 60 56 55 49 50 52 48 52 55 57 56 54 55 55 54 56 60 59 58 53 50 49
60 60 60 60 61 61 62 62 62 62 62 63 63 62 57 52 66 67 65 64 64 63 61 61 59 59 53 51 51 51 52 54 56 56 55 54 49 54 57 56 58 53 49 48 48
60 60 60 60 60 61 61 62 62 62 62 63 63 60 55 60 65 65 66 63 64 63 60 60 61 57 55 50 54 52 50 52 53 52 52 53 47 51 58 56 52 48 46 47 47
60 60 60 60 60 60 61 61 61 61 62 63 63 55 55 64 62 64 64 62 64 64 63 62 62 59 54 54 53 46 45 43 51 51 51 52 47 56 56 55 47 44 42 45 45
60 59 59 60 60 60 60 61 61 62 62 63 55 53 54 65 60 63 63 61 62 61 62 68 61 54 53 47 42 41 38 41 48 51 50 49 46 58 57 55 45 41 42 43 43
59 59 59 60 60 60 60 61 61 61 61 62 62 51 58 57 59 61 60 63 58 58 57 55 49 45 43 42 37 39 37 39 42 47 49 45 46 52 51 51 41 38 40 41 41
59 59 60 60 60 61 60 55 54 51 53 55 54 55 57 59 61 58 60 60 57 53 46 47 43 41 45 47 44 43 40 40 43 50 45 45 45 41 45 43 40 40 40 40 41
59 59 60 60 60 61 58 52 54 53 49 57 56 56 59 60 54 56 61 55 51 46 46 42 39 49 49 47 46 43 40 40 44 48 46 43 42 40 41 40 40 40 39 40 40
59 59 59 60 60 58 55 55 60 56 46 52 55 54 56 60 55 55 59 54 49 45 45 43 47 50 49 45 43 40 39 38 42 42 42 38 37 37 39 40 41 40 40 40 38
59 59 59 59 56 55 54 60 61 58 40 45 50 53 55 57 50 56 59 55 48 46 46 43 49 48 44 44 45 37 46 45 42 38 33 37 30 34 34 35 37 37 35 36 37
59 59 59 60 54 54 59 59 59 56 31 49 47 57 55 52 49 49 56 53 45 46 46 43 44 43 43 44 47 43 45 43 40 36 31 31 30 30 35 32 33 34 36 35 36
59 59 59 57 57 57 58 58 58 42 32 43 47 46 47 48 48 49 49 53 51 45 43 45 46 47 47 45 47 47 42 39 34 33 27 34 33 31 32 35 33 34 35 37 36
58 58 57 59 54 56 56 52 39 34 47 41 40 44 43 42 44 46 43 43 41 35 35 41 42 44 47 42 44 42 38 29 26 24 27 33 31 34 35 37 37 35 34 35 35
58 57 57 59 56 56 54 44 31 40 43 45 43 42 40 43 42 42 40 38 44 40 35 34 33 44 47 44 40 38 39 30 22 22 28 32 29 34 35 38 38 38 36 35 35
57 57 55 54 55 56 48 38 37 40 46 46 46 41 38 43 43 40 38 38 43 43 39 34 36 43 43 44 46 38 35 40 30 15 22 30 30 34 35 34 35 35 34 34 34
54 53 52 54 56 53 45 40 40 47 48 47 43 44 36 39 40 39 39 41 43 45 45 42 35 40 41 43 41 41 43 33 30 19 15 26 28 31 29 31 33 32 33 34 34
52 48 52 55 54 47 39 38 42 48 50 46 44 41 40 39 41 38 39 41 40 41 46 44 40 36 41 38 38 37 35 34 35 31 21 17 27 35 34 35 34 34 36 34 34
49 42 53 54 42 42 36 41 45 45 47 45 45 44 42 42 39 39 39 42 43 43 42 42 39 31 37 40 40 38 36 36 29 26 25 26 31 36 39 38 38 36 36 34 35
45 45 50 50 36 38 42 42 44 43 44 43 42 44 44 40 36 40 42 44 45 42 42 42 33 27 30 37 35 34 35 35 33 30 23 21 25 36 36 34 35 34 34 34 34
43 39 43 44 45 42 40 40 40 45 44 45 43 44 41 39 42 38 40 41 41 43 44 44 33 28 27 32 34 30 30 33 31 23 22 27 25 30 33 35 34 33 33 32 32
42 38 41 37 39 42 44 41 38 39 44 45 41 42 40 36 38 37 38 36 37 41 39 39 31 31 31 31 33 30 27 30 27 31 30 33 31 34 36 35 34 32 31 30 31
37 37 39 37 39 40 41 40 40 42 42 40 39 42 43 37 38 35 36 35 35 34 36 35 31 31 28 29 31 28 32 32 32 33 30 32 32 36 35 31 28 30 30 31 31
40 39 38 36 36 36 37 38 40 42 40 43 42 39 39 42 40 38 39 39 38 34 33 31 28 26 23 24 26 23 28 31 33 29 33 25 31 24 25 30 29 28 31 31 32
MSLP
1019.79 1019.56 1019.46 1019.42 1019.32 1019.19 1019.02 1018.92 1018.82 1018.57 1018.34 1018.08 1017.80 1017.59 1017.35 1017.08 1016.63 1016.52 1015.86 1014.98 1014.91 1014.86 1014.95 1015.00 1015.04 1015.22 1015.41 1016.03 1016.42 1017.20 1018.28 1018.59 1017.57 1016.79 1016.00 1015.54 1015.42 1014.67 1014.73 1014.74 1014.66 1014.34 1014.39 1014.48 1014.56
1019.93 1019.77 1019.66 1019.55 1019.44 1019.29 1019.13 1018.93 1018.80 1018.69 1018.45 1018.14 1017.79 1017.54 1017.33 1017.05 1016.75 1015.95 1014.87 1014.71 1014.75 1014.89 1015.08 1015.28 1015.51 1015.64 1016.23 1016.60 1017.00 1017.73 1018.64 1017.97 1017.01 1016.35 1016.03 1015.72 1015.69 1015.57 1015.41 1015.24 1015.15 1014.96 1014.65 1014.75 1014.99
1019.96 1019.93 1019.75 1019.65 1019.57 1019.41 1019.25 1019.04 1018.84 1018.66 1018.49 1018.22 1017.89 1017.62 1017.35 1017.16 1016.71 1015.06 1014.69 1014.71 1014.83 1014.96 1015.04 1015.26 1015.57 1015.91 1016.49 1016.80 1017.16 1017.72 1017.92 1017.33 1016.56 1016.24 1016.04 1016.01 1015.96 1015.79 1015.89 1015.62 1015.60 1015.67 1015.46 1015.73 1015.80
1019.94 1019.90 1019.81 1019.73 1019.63 1019.47 1019.34 1019.20 1019.00 1018.75 1018.53 1018.24 1017.97 1017.65 1017.36 1017.23 1016.40 1014.76 1014.69 1014.79 1014.98 1015.16 1015.22 1015.46 1015.84 1016.40 1016.83 1017.01 1016.95 1017.53 1016.99 1016.90 1016.42 1016.19 1016.28 1016.21 1016.01 1016.04 1016.08 1015.37 1015.77 1016.22 1016.55 1016.83 1017.27
1019.81 1019.78 1019.78 1019.70 1019.66 1019.50 1019.33 1019.21 1019.02 1018.78 1018.47 1018.19 1017.93 1017.72 1017.36 1017.07 1015.70 1014.73 1014.80 1014.99 1015.19 1015.45 1015.58 1015.81 1016.18 1016.51 1016.93 1017.00 1017.08 1017.28 1016.93 1016.73 1016.37 1016.37 1016.42 1016.28 1016.27 1016.30 1015.82 1015.55 1016.14 1016.98 1017.61 1018.25 1018.60
1019.55 1019.63 1019.60 1019.55 1019.55 1019.47 1019.28 1019.08 1018.88 1018.66 1018.37 1018.11 1017.96 1017.86 1017.65 1016.84 1014.76 1014.80 1015.00 1015.28 1015.39 1015.56 1015.73 1015.90 1016.09 1016.32 1016.75 1016.96 1017.22 1017.14 1017.06 1016.87 1016.47 1016.13 1016.27 1016.44 1016.49 1016.54 1015.58 1015.93 1017.03 1017.87 1018.90 1019.48 1019.82
1019.30 1019.32 1019.30 1019.34 1019.25 1019.26 1019.13 1018.92 1018.71 1018.50 1018.25 1017.97 1017.76 1017.90 1017.57 1015.65 1014.72 1014.91 1015.00 1015.12 1015.28 1015.53 1015.75 1015.86 1015.92 1016.35 1016.78 1017.03 1017.14 1017.27 1017.45 1017.05 1016.20 1016.10 1016.16 1016.35 1016.88 1016.31 1015.62 1016.56 1018.04 1019.29 1020.12 1020.53 1020.83
1018.94 1019.10 1019.09 1019.06 1019.06 1018.98 1018.92 1018.70 1018.47 1018.31 1018.13 1017.96 1017.83 1017.90 1016.85 1015.01 1014.94 1015.02 1015.14 1015.24 1015.33 1015.45 1015.59 1015.75 1015.92 1016.46 1016.91 1017.24 1017.60 1017.88 1018.00 1017.79 1016.19 1016.13 1016.11 1016.36 1016.49 1015.96 1016.31 1017.22 1019.15 1020.32 1021.22 1021.56 1021.73
1018.57 1018.70 1018.80 1018.87 1018.90 1018.88 1018.64 1018.59 1018.29 1017.93 1017.92 1017.96 1018.08 1017.86 1016.41 1015.06 1015.10 1014.88 1014.92 1015.36 1015.60 1015.72 1015.83 1015.92 1016.16 1017.04 1017.44 1018.04 1018.75 1018.80 1018.52 1018.13 1016.99 1016.13 1016.33 1016.66 1016.98 1016.21 1017.21 1017.98 1020.12 1021.48 1022.16 1022.61 1022.79
1018.05 1018.31 1018.46 1018.64 1018.71 1018.69 1018.61 1018.07 1018.08 1017.90 1018.00 1017.96 1017.95 1018.14 1015.86 1015.09 1014.97 1015.01 1015.06 1015.34 1015.84 1016.19 1016.45 1016.73 1017.42 1017.89 1018.47 1018.72 1018.85 1018.68 1018.83 1018.30 1017.54 1016.83 1016.77 1017.34 1017.72 1017.36 1018.49 1018.91 1021.11 1022.42 1022.98 1023.43 1023.68
1017.56 1017.88 1018.08 1018.26 1018.44 1018.65 1018.58 1018.11 1018.57 1018.25 1017.91 1016.51 1016.28 1015.84 1015.26 1015.27 1015.15 1015.26 1015.29 1015.60 1016.09 1016.69 1017.18 1017.45 1018.13 1017.96 1017.80 1017.86 1017.85 1018.05 1018.33 1018.24 1017.56 1017.03 1017.49 1017.96 1018.66 1019.79 1020.18 1020.92 1022.22 1023.12 1023.79 1024.12 1024.25
1016.93 1017.36 1017.73 1017.98 1018.20 1018.53 1018.57 1018.51 1017.53 1017.66 1017.02 1015.66 1015.73 1015.44 1014.88 1014.98 1015.31 1015.56 1015.54 1015.93 1016.41 1017.07 1017.57 1018.23 1017.70 1017.08 1017.47 1017.90 1018.21 1018.31 1018.47 1018.33 1017.96 1017.42 1017.90 1018.47 1019.52 1021.01 1021.60 1022.71 1023.37 1024.03 1024.71 1025.07 1025.13
1016.17 1016.84 1017.28 1017.81 1018.12 1018.19 1018.11 1017.57 1017.03 1017.08 1017.26 1015.35 1014.74 1014.47 1014.35 1014.75 1014.78 1015.02 1015.61 1015.96 1016.30 1017.06 1017.37 1017.23 1016.83 1016.77 1017.44 1017.83 1018.21 1018.20 1018.42 1018.42 1018.33 1018.13 1018.37 1019.05 1020.17 1021.33 1022.93 1023.60 1024.29 1024.77 1025.07 1025.47 1025.84
1015.35 1015.99 1016.68 1017.63 1018.48 1017.46 1017.28 1016.41 1016.98 1017.39 1017.17 1014.91 1014.31 1013.57 1013.81 1014.18 1014.88 1014.71 1014.77 1015.40 1016.25 1016.46 1017.28 1017.18 1016.49 1016.73 1017.07 1017.18 1017.45 1017.92 1017.62 1018.08 1018.56 1019.09 1019.53 1019.65 1020.87 1021.89 1023.17 1024.20 1024.92 1025.50 1025.84 1025.77 1025.74
1014.71 1015.14 1015.82 1016.34 1016.19 1016.66 1015.90 1015.85 1016.69 1017.47 1017.01 1013.74 1013.88 1013.73 1013.78 1014.40 1014.83 1015.12 1015.15 1015.25 1015.79 1016.32 1016.91 1016.30 1016.27 1016.50 1016.62 1016.33 1016.98 1017.20 1017.45 1018.28 1018.89 1019.53 1020.06 1020.54 1021.59 1021.76 1023.25 1024.68 1025.53 1026.21 1026.52 1026.69 1026.60
1013.99 1014.41 1014.98 1015.48 1015.82 1015.51 1015.62 1016.14 1016.86 1017.58 1014.88 1013.96 1013.88 1013.94 1014.16 1014.64 1015.02 1015.35 1015.41 1015.43 1015.71 1016.22 1016.43 1016.23 1015.93 1015.95 1015.84 1016.13 1016.41 1017.12 1018.02 1019.00 1019.89 1020.58 1021.02 1020.25 1021.27 1021.92 1022.80 1023.50 1025.31 1026.28 1026.70 1026.75 1026.80
1012.91 1013.57 1014.20 1014.25 1014.05 1015.29 1015.37 1016.76 1017.11 1015.05 1013.45 1013.45 1013.82 1014.09 1014.39 1014.91 1015.37 1015.49 1015.79 1015.94 1016.04 1016.52 1016.49 1016.30 1015.94 1015.62 1015.55 1016.20 1016.66 1017.40 1018.35 1019.73 1020.92 1021.54 1020.76 1020.46 1021.53 1021.11 1021.96 1022.63 1023.94 1025.60 1026.58 1026.91 1027.02
1011.93 1012.55 1012.57 1013.08 1013.94 1014.34 1015.04 1016.39 1014.78 1013.24 1012.90 1012.77 1013.35 1014.16 1014.72 1014.80 1015.24 1015.67 1015.98 1016.10 1015.97 1015.96 1016.21 1016.25 1015.98 1015.26 1015.14 1015.28 1015.84 1017.17 1017.67 1018.79 1020.10 1021.33 1021.07 1021.09 1021.14 1020.96 1022.10 1022.52 1023.65 1025.08 1025.86 1026.70 1026.96
1011.24 1011.77 1011.99 1012.38 1013.11 1013.72 1014.04 1013.91 1012.97 1012.88 1012.30 1012.35 1013.64 1014.08 1014.48 1014.45 1014.68 1015.60 1015.84 1015.69 1015.11 1015.46 1015.62 1015.63 1015.22 1014.77 1014.82 1014.91 1015.28 1017.16 1017.70 1017.77 1019.57 1021.89 1021.92 1020.81 1021.34 1021.98 1022.78 1023.65 1024.37 1025.34 1025.92 1026.48 1027.15
1010.84 1011.12 1011.30 1011.66 1012.08 1012.69 1012.80 1012.59 1012.72 1012.13 1011.73 1011.88 1012.29 1012.77 1013.52 1014.12 1014.43 1014.98 1015.41 1014.60 1014.59 1014.40 1014.42 1014.67 1015.09 1015.16 1015.28 1015.38 1015.80 1016.19 1016.69 1018.03 1019.52 1021.31 1021.68 1020.80 1021.00 1021.00 1022.60 1023.37 1024.29 1024.91 1025.55 1025.68 1027.05
1010.76 1011.37 1011.29 1011.55 1011.77 1011.71 1011.55 1012.24 1012.11 1011.86 1011.85 1012.08 1011.81 1012.56 1013.09 1013.62 1013.71 1014.16 1014.48 1014.69 1014.56 1014.47 1014.53 1014.72 1014.97 1015.92 1015.74 1015.85 1016.09 1016.79 1016.91 1017.81 1018.53 1019.67 1020.77 1021.22 1019.70 1019.01 1020.40 1021.52 1023.25 1023.96 1024.59 1025.21 1026.11
1010.79 1011.71 1011.56 1011.96 1012.19 1011.59 1011.82 1011.80 1011.90 1011.77 1011.99 1011.94 1011.87 1012.31 1012.86 1013.48 1013.73 1014.09 1014.22 1014.26 1014.62 1014.74 1014.97 1015.20 1015.64 1016.62 1016.26 1016.45 1016.71 1016.84 1016.93 1017.42 1018.48 1019.77 1020.40 1020.62 1019.09 1019.04 1019.59 1020.82 1022.39 1023.35 1023.92 1025.09 1025.81
1011.18 1011.68 1011.92 1011.86 1011.93 1011.70 1011.47 1011.09 1011.34 1011.60 1011.60 1012.01 1012.18 1012.53 1013.15 1013.55 1014.18 1014.30 1014.63 1014.83 1014.95 1015.31 1015.49 1015.97 1016.96 1017.81 1017.78 1017.78 1017.41 1017.52 1017.59 1017.92 1018.65 1019.31 1019.75 1020.85 1019.40 1019.72 1020.24 1021.70 1022.03 1023.14 1023.94 1024.80 1025.64
1011.51 1011.95 1011.92 1011.80 1011.48 1011.18 1011.26 1011.01 1011.13 1011.20 1011.57 1011.85 1012.36 1012.84 1013.28 1013.54 1013.89 1014.40 1014.94 1015.52 1015.79 1016.13 1016.36 1016.61 1017.43 1017.53 1017.58 1017.58 1017.66 1018.55 1018.53 1018.68 1018.81 1019.92 1019.78 1019.41 1019.95 1020.34 1021.11 1021.62 1021.90 1023.31 1023.92 1024.52 1025.21
1011.51 1011.67 1011.83 1011.27 1011.13 1010.94 1010.98 1010.91 1010.85 1011.21 1011.57 1011.91 1012.44 1012.59 1013.18 1013.56 1014.19 1014.53 1015.26 1016.01 1016.48 1016.73 1017.13 1017.63 1018.08 1018.43 1018.52 1018.78 1018.83 1019.20 1019.25 1018.82 1018.95 1018.93 1019.17 1019.13 1019.83 1020.12 1020.96 1021.51 1021.99 1022.72 1024.13 1024.72 1025.27
1012.85 1012.58 1012.31 1012.09 1011.57 1010.93 1010.75 1010.27 1010.36 1010.84 1011.14 1011.65 1012.07 1012.36 1013.27 1013.34 1013.42 1014.03 1014.93 1015.97 1016.40 1017.38 1017.64 1018.08 1018.58 1019.13 1019.54 1019.78 1019.93 1020.14 1019.18 1019.22 1018.98 1018.83 1018.93 1019.66 1019.39 1019.83 1020.76 1021.73 1022.59 1023.12 1024.05 1024.74 1024.94
1013.34 1013.27 1012.74 1012.57 1012.14 1011.55 1010.79 1010.69 1010.35 1010.60 1011.21 1011.50 1011.96 1013.00 1013.36 1013.47 1014.37 1014.82 1014.48 1015.24 1015.76 1016.64 1017.64 1018.83 1019.28 1020.04 1020.92 1021.24 1020.96 1020.60 1018.32 1018.73 1018.62 1018.65 1019.13 1020.04 1019.65 1020.88 1021.73 1022.25 1022.65 1023.23 1023.76 1024.33 1024.69
Wind_Speed
7 7 7 8 9 10 10 11 11 11 10 11 12 12 11 11 12 1 4 4 1 8 1 3 3 4 4 3 4 3 5 1 4 3 4 3 6 5 1 2 5 3 1 3 3
7 7 7 8 8 9 10 10 11 12 12 12 13 12 12 11 2 4 4 1 1 8 3 3 2 3 4 3 3 5 4 8 4 2 3 4 2 4 6 6 3 4 4 3 2
6 7 7 8 9 9 10 10 11 11 12 13 13 11 10 6 5 4 1 1 4 6 3 3 4 3 2 1 1 3 5 4 4 5 2 2 3 1 2 5 7 7 6 7 4
7 7 7 8 8 9 10 10 10 10 12 13 12 10 10 2 4 1 2 3 4 4 3 4 3 3 2 3 3 2 6 5 3 3 1 3 1 4 5 10 3 5 7 5 10
7 8 8 8 9 10 10 10 11 10 11 12 10 9 4 2 9 2 6 6 5 5 4 4 4 5 4 3 1 3 4 3 6 6 5 3 6 5 10 8 5 9 12 10 9
8 8 8 8 8 10 11 11 11 10 10 10 9 7 0 4 1 6 7 4 4 4 4 5 5 6 3 2 3 2 3 6 8 8 4 5 2 5 4 4 11 11 10 11 13
9 9 9 9 9 9 10 12 12 11 11 9 5 1 1 13 1 4 5 4 5 4 3 3 3 3 3 1 2 3 6 8 6 2 4 7 2 8 7 5 11 10 8 11 13
9 10 10 9 9 9 11 12 12 11 10 5 2 1 8 1 1 3 2 2 3 1 3 3 4 3 2 1 6 2 2 4 3 3 1 4 7 5 2 6 8 8 8 10 13
10 10 10 9 9 10 10 13 14 12 4 1 1 2 9 1 2 3 4 4 4 3 3 2 3 3 4 5 4 4 4 5 9 1 3 3 5 9 7 5 8 8 9 11 11
10 10 10 9 9 9 12 12 7 2 0 1 2 3 3 5 2 3 1 6 3 4 4 4 5 3 3 4 6 7 5 5 6 1 4 2 6 10 9 3 9 8 9 11 12
11 11 10 9 7 7 6 4 3 3 3 10 8 5 2 1 1 1 2 5 4 4 6 2 4 10 13 13 3 3 5 6 4 4 3 5 5 7 11 12 11 9 10 11 11
12 12 11 9 6 3 1 2 4 1 8 10 7 7 3 5 3 3 5 6 5 6 6 3 8 10 3 5 5 4 3 6 5 5 4 3 3 6 11 6 8 9 9 9 8
15 14 12 8 3 1 4 7 1 1 4 8 7 6 6 9 8 9 10 4 5 7 8 9 7 4 7 5 6 5 7 5 7 2 1 1 2 3 5 10 10 10 9 8 7
17 16 14 9 2 4 5 7 5 1 4 7 6 5 4 7 4 1 6 6 3 10 6 8 6 6 5 7 9 5 8 7 4 4 4 2 5 3 4 6 7 6 6 6 7
18 19 19 21 5 5 4 8 7 3 7 0 3 2 4 6 6 1 0 3 7 7 7 8 6 5 7 7 6 6 5 7 4 4 2 3 2 1 7 3 4 4 5 5 5
19 19 20 14 3 2 6 7 4 4 15 4 3 4 6 3 2 3 3 3 3 5 3 6 1 5 6 2 6 5 6 6 5 4 2 8 7 4 6 7 7 5 5 6 5
21 20 18 8 9 7 7 3 4 8 1 6 6 6 4 6 4 4 6 6 6 6 6 2 5 2 4 5 3 3 5 1 2 0 6 2 4 5 3 6 15 13 8 6 5
21 19 16 9 6 15 6 5 8 6 10 4 5 4 7 7 5 6 6 6 6 2 3 7 4 11 7 7 8 7 7 6 8 5 3 0 7 3 1 8 14 11 10 7 7
17 8 4 7 15 11 7 10 9 6 6 10 4 5 5 5 6 5 7 5 9 12 8 6 6 1 3 4 7 5 5 4 7 3 4 5 1 2 5 7 10 10 8 8 7
3 4 3 12 15 10 9 13 7 4 4 2 15 7 9 8 8 9 10 4 4 10 4 4 1 1 2 3 3 5 7 4 2 2 4 4 4 5 11 14 12 10 11 9 7
3 1 2 6 5 4 8 4 5 5 3 6 6 5 5 6 7 7 7 1 2 0 8 5 3 1 3 5 7 3 3 3 4 5 6 2 7 2 17 21 19 15 12 11 9
3 1 4 5 1 1 5 7 4 5 3 1 2 4 4 4 4 5 7 3 2 1 7 2 4 2 7 1 1 1 6 6 6 5 3 3 8 6 12 17 16 13 10 7 7
4 2 1 1 5 5 3 5 7 6 4 4 2 3 5 4 2 5 6 4 3 3 3 3 3 3 4 2 0 5 4 3 4 4 8 6 6 4 7 8 8 10 8 8 8
3 4 2 3 2 9 6 5 7 4 5 5 4 3 3 4 5 6 4 2 2 2 8 4 2 5 9 3 4 3 3 4 5 4 4 8 3 3 6 11 8 7 8 9 8
1 2 2 4 7 4 12 11 12 7 9 11 5 13 13 7 9 7 5 2 2 2 3 5 4 3 3 3 3 1 5 9 8 8 10 6 8 11 13 12 10 9 7 8 8
1 1 1 2 3 12 5 10 17 15 9 8 15 13 15 12 13 10 9 6 6 2 4 3 3 3 2 4 2 5 13 6 9 5 5 3 13 7 5 6 6 9 11 9 8
1 0 3 0 2 1 3 5 8 8 2 3 7 5 12 13 3 4 5 5 7 10 9 7 7 4 4 3 3 9 11 18 13 5 10 11 11 6 4 6 9 10 11 9 7
Wind_Direction
6 10 7 3 3 359 1 359 356 355 350 340 336 335 336 334 318 174 253 221 271 159 141 105 45 25 33 61 52 109 60 236 245 186 267 328 20 313 271 284 346 311 262 312 26
345 348 349 350 350 350 351 351 349 346 343 338 333 335 335 338 320 269 261 251 103 152 96 116 94 55 36 37 29 86 118 221 221 214 250 315 347 328 353 351 286 309 315 36 74
323 325 330 333 336 338 340 342 341 337 336 331 327 329 331 329 343 252 11 208 160 172 116 108 98 71 46 66 196 149 195 211 251 225 211 237 278 222 306 304 236 274 289 353 326
302 306 313 318 321 325 329 331 332 332 331 329 326 327 325 309 296 173 123 107 135 158 107 115 97 104 164 212 190 172 240 213 261 187 196 240 230 272 215 247 58 297 319 7 20
287 292 299 307 310 314 317 321 325 326 326 328 326 332 334 339 252 112 118 112 104 125 157 143 140 150 190 211 155 209 267 269 261 272 252 305 236 246 263 280 339 58 48 42 33
275 282 288 294 301 306 310 312 317 319 322 327 329 325 136 257 140 131 122 117 133 133 166 140 194 190 177 224 168 238 275 274 280 262 238 213 248 137 307 79 64 70 48 39 35
266 271 278 287 292 298 303 308 311 313 318 324 333 349 215 240 52 143 142 164 161 153 151 194 176 130 134 282 336 323 324 326 264 293 217 160 80 231 249 40 70 70 60 47 33
250 264 272 278 287 296 302 303 304 302 305 326 93 76 248 330 129 141 153 82 107 113 141 151 146 118 164 168 19 2 34 339 273 145 168 134 259 276 2 37 93 78 57 51 38
246 254 262 272 283 293 301 305 302 291 233 121 21 115 262 77 205 204 148 155 115 69 46 83 98 124 62 105 8 360 237 213 311 81 118 112 275 277 52 28 109 66 55 49 35
235 243 252 264 279 296 306 306 288 56 159 179 267 13 254 235 172 141 84 131 124 108 57 64 52 101 60 111 222 202 216 242 237 33 60 338 267 289 359 231 101 82 66 58 45
229 235 241 245 265 299 335 15 323 299 254 194 190 221 134 30 109 147 154 105 91 78 163 181 127 208 197 202 191 167 185 214 247 252 146 230 247 19 1 72 89 81 76 70 57
218 225 230 232 241 286 28 244 244 203 299 234 234 267 214 178 163 218 128 148 152 187 117 69 226 225 181 183 199 237 230 251 281 269 163 253 313 58 36 51 74 85 69 62 60
208 213 215 216 220 218 202 221 179 77 260 281 202 196 198 157 218 195 158 150 169 159 195 185 213 158 174 181 186 207 201 190 222 340 321 310 293 132 65 68 73 67 81 69 58
208 202 195 158 188 168 217 216 170 111 285 253 229 245 122 147 233 145 180 151 187 196 178 237 235 181 183 216 175 210 202 190 184 126 231 110 262 177 118 90 81 83 82 95 90
216 203 183 173 164 175 217 136 130 74 273 253 168 142 134 164 136 334 267 61 172 180 140 232 183 178 201 211 172 219 144 166 156 133 61 259 115 232 134 144 140 127 110 81 77
218 210 195 192 242 196 122 101 99 149 233 211 128 159 122 161 138 119 128 63 153 151 230 230 211 181 209 88 172 129 90 55 57 88 263 230 171 211 188 178 156 163 154 139 133
215 213 193 176 204 145 112 96 186 209 211 199 183 169 162 166 172 157 162 173 173 138 219 195 216 206 158 98 73 93 110 102 7 39 227 135 136 235 288 184 163 160 164 168 154
214 211 207 202 142 139 135 184 207 206 209 111 115 106 180 156 202 173 145 189 238 146 122 173 246 171 187 180 174 185 175 164 203 195 233 150 231 245 116 121 138 153 161 170 169
197 206 200 170 150 147 166 209 204 178 198 145 118 164 217 203 155 140 194 211 199 182 193 172 270 228 161 148 136 183 204 168 104 40 63 229 348 198 116 126 146 161 164 179 187
144 174 182 156 159 165 210 205 215 224 140 172 194 170 184 193 160 176 181 196 216 185 190 214 180 169 134 115 56 162 166 104 357 165 250 269 255 222 187 180 183 179 189 182 186
78 121 57 131 151 194 204 240 182 211 198 205 176 149 187 185 182 176 192 113 110 269 170 167 125 234 126 198 184 158 186 60 125 148 173 242 254 213 189 183 185 190 193 182 181
116 143 157 157 193 150 155 183 188 175 161 146 104 103 177 168 178 187 183 158 168 146 159 351 88 189 225 132 274 283 206 162 157 217 229 167 251 324 182 178 183 190 182 175 179
150 148 166 218 198 222 175 166 182 161 191 137 137 163 177 187 168 224 202 60 48 65 129 104 175 127 339 321 1 209 205 121 92 63 199 163 261 34 113 160 171 172 173 169 175
129 176 183 166 271 193 194 194 174 178 157 145 154 133 157 200 177 178 170 102 62 104 96 71 169 182 195 154 109 160 221 185 142 161 167 232 177 196 190 174 171 171 172 166 161
34 159 325 184 214 229 186 183 203 184 202 190 205 199 193 187 206 202 182 121 42 119 137 131 224 182 191 125 69 190 223 197 194 199 194 228 213 191 199 198 185 169 159 156 167
238 259 44 336 314 206 203 205 195 193 167 195 218 200 208 203 196 186 143 177 195 106 138 149 188 157 239 349 178 242 243 213 222 209 258 229 259 170 181 99 147 175 169 172 178
170 53 92 252 254 231 230 198 205 132 193 183 183 167 207 222 64 4 95 136 162 159 159 168 149 133 222 34 81 278 228 210 217 201 200 212 231 160 183 197 187 173 171 170 176